Location: Coffee Creek Observatory
(38.8077°N, 94.7179°W)
Time: 23:22:46
(UTC-05:00)

Amateur Radio Satellites - All Passes

Search period start: 23 July 2014 22:52
Search period end: 24 July 2014 22:52
Location: Coffee Creek Observatory, 38.8077°N, 94.7179°W

Satellite Date Start Highest point End Downlink Frequencies (MHz)
Time Altitude Azimuth
Oscar 11 23 Jul 23:20:08 23:23:15 19° 266° (W) 23:26:22 145.825 FM, Beacon 2401.500 USB
FUNcube-1 23 Jul 23:24:08 23:28:24 48° 261° (W) 23:32:35 145.950 - 145.970 MHz USB
UOSAT-12 23 Jul 23:38:25 23:39:40 11° 38° (NE) 23:40:55 437.025 FM, 437.400 FM
Lituanica SAT-1 24 Jul 00:15:52 00:17:52 38° 137° (SE) 00:19:54 437.275 MHz beacon
AO-40 24 Jul 00:23:43 06:19:51 42° 181° (S) 10:20:39 Beacon 2401.320
SO-50 24 Jul 00:24:03 00:28:15 31° 247° (WSW) 00:32:28 436.795 FM
MaSat-1 24 Jul 00:25:57 00:28:34 16° 311° (NW) 00:31:25 437.345 MHz
RS-15 24 Jul 00:34:33 00:45:36 79° 243° (WSW) 00:57:06 29.354 - 29.394 USB, Beacon 29.352 USB
PCSat 24 Jul 01:07:56 01:10:38 14° 103° (ESE) 01:13:21 145.825 MHz
UOSAT-12 24 Jul 01:15:59 01:20:43 68° 57° (ENE) 01:25:22 437.025 FM, 437.400 FM
Oscar 16 24 Jul 01:40:06 01:42:46 14° 91° (E) 01:45:25 437.025 USB, Beacon 2401.1428
Lituanica SAT-1 24 Jul 01:49:53 01:50:49 12° 334° (NNW) 01:51:46 437.275 MHz beacon
ISS 24 Jul 01:54:16 01:57:34 65° 139° (SE) 02:00:54 145.800 FM
AO-27 24 Jul 02:08:16 02:09:27 11° 89° (E) 02:10:39 436.795 MHz FM
Uribyol 2 24 Jul 02:10:42 02:12:44 12° 90° (E) 02:14:46 436.500 FM
AO-Echo 24 Jul 02:13:52 02:16:08 13° 89° (E) 02:18:22 ?
Sapphire 24 Jul 02:14:08 02:19:22 54° 113° (ESE) 02:24:39 437.095 MHz 1200 baud AX-25 AFSK
JAS-1B 24 Jul 02:44:21 02:51:42 25° 88° (E) 02:58:18 435.800 - 435.900 CW/SSB
PCSat 24 Jul 02:47:59 02:53:22 72° 299° (WNW) 02:58:48 145.825 MHz
Oscar 19 24 Jul 02:49:58 02:55:07 68° 102° (ESE) 03:00:15 437.125 CW, 437.150 USB
RS-15 24 Jul 02:50:03 02:56:10 17° 261° (W) 03:02:26 29.354 - 29.394 USB, Beacon 29.352 USB
UOSAT-12 24 Jul 02:58:14 03:00:15 13° 253° (WSW) 03:02:16 437.025 FM, 437.400 FM
TMSAT-1 24 Jul 03:16:20 03:19:23 15° 91° (E) 03:22:25 436.925 FM
Oscar 16 24 Jul 03:17:25 03:22:31 64° 287° (WNW) 03:27:37 437.025 USB, Beacon 2401.1428
ITAMSAT 1 24 Jul 03:26:37 03:31:47 68° 102° (ESE) 03:36:55 435.822 SSB
ISS 24 Jul 03:32:02 03:34:34 20° 336° (NNW) 03:37:06 145.800 FM
Gurwin Techsat 1B 24 Jul 03:35:42 03:40:30 34° 97° (E) 03:45:15 435.225 FM
OPAL 24 Jul 03:40:36 03:44:58 32° 67° (ENE) 03:49:21 ?
AO-27 24 Jul 03:44:20 03:49:33 80° 285° (WNW) 03:54:42 436.795 MHz FM
Uribyol 2 24 Jul 03:47:33 03:52:42 72° 286° (WNW) 03:57:49 436.500 FM
AO-Echo 24 Jul 03:50:17 03:55:24 67° 286° (WNW) 04:00:19 ?
Sapphire 24 Jul 03:58:56 04:03:07 22° 311° (NW) 04:07:20 437.095 MHz 1200 baud AX-25 AFSK
Oscar 19 24 Jul 04:31:05 04:33:52 15° 298° (WNW) 04:36:39 437.125 CW, 437.150 USB
JAS-1B 24 Jul 04:33:27 04:43:05 74° 288° (WNW) 04:51:25 435.800 - 435.900 CW/SSB
PCSat 24 Jul 04:35:38 04:37:46 12° 319° (NW) 04:39:55 145.825 MHz
TMSAT-1 24 Jul 04:54:28 04:59:41 61° 287° (WNW) 05:04:53 436.925 FM
AO-7 24 Jul 05:00:30 05:08:05 37° 98° (E) 05:15:34 29.400 - 29.500 MHz
ITAMSAT 1 24 Jul 05:07:54 05:10:41 15° 298° (WNW) 05:13:27 435.822 SSB
Gurwin Techsat 1B 24 Jul 05:15:49 05:20:20 29° 293° (WNW) 05:24:49 435.225 FM
OPAL 24 Jul 05:19:42 05:23:51 27° 262° (W) 05:28:01 ?
Uosat F 24 Jul 05:42:18 05:47:21 89° 104° (ESE) 05:52:21 435.120 FM
STRAND 1 24 Jul 05:56:28 05:59:21 15° 62° (ENE) 06:02:13 ?
JAS-1B 24 Jul 06:25:55 06:31:44 18° 309° (NW) 06:37:14 435.800 - 435.900 CW/SSB
Lituanica SAT-1 24 Jul 06:30:08 06:31:52 21° 31° (NNE) 06:33:37 437.275 MHz beacon
Oscar 10/S400 24 Jul 06:31:39 07:53:05 37° 244° (WSW) 12:09:03 145.825 - 145.975 CW/USB, Beacon 145.810 USB
ISS 24 Jul 06:48:30 06:50:17 14° 17° (NNE) 06:52:03 145.800 FM
Hamsat 24 Jul 06:50:04 06:54:00 35° 97° (E) 06:57:57 145.90 MHz
AO-7 24 Jul 06:53:05 07:00:56 48° 296° (WNW) 07:08:45 29.400 - 29.500 MHz
KITSAT 1 24 Jul 06:54:22 07:01:30 36° 108° (ESE) 07:08:39 435.175 FM
MaSat-1 24 Jul 07:07:39 07:10:34 15° 48° (NE) 07:13:28 437.345 MHz
JAS-2 24 Jul 07:08:01 07:13:46 40° 96° (E) 07:18:55 435.800 - 435.900 CW/SSB, 435.910 FM
Uosat F 24 Jul 07:24:16 07:25:21 11° 301° (WNW) 07:26:26 435.120 FM
STRAND 1 24 Jul 07:32:51 07:37:57 66° 258° (WSW) 07:43:06 ?
SO-67 24 Jul 07:48:23 07:51:04 21° 95° (E) 07:53:45 435.3500 MHz FM
Lituanica SAT-1 24 Jul 08:03:07 08:04:33 16° 227° (SW) 08:05:57 437.275 MHz beacon
ISS 24 Jul 08:24:18 08:27:36 54° 35° (NE) 08:30:54 145.800 FM
Hamsat 24 Jul 08:26:42 08:29:43 19° 292° (WNW) 08:32:45 145.90 MHz
PANSAT 24 Jul 08:31:40 08:34:02 16° 172° (S) 08:36:23 not established
MaSat-1 24 Jul 08:43:20 08:48:42 88° 246° (WSW) 08:53:48 437.345 MHz
KITSAT 1 24 Jul 08:48:48 08:56:37 51° 306° (NW) 09:04:29 435.175 FM
JAS-2 24 Jul 08:53:29 08:58:35 27° 297° (WNW) 09:03:14 435.800 - 435.900 CW/SSB, 435.910 FM
Saudisat 1A 24 Jul 09:20:36 09:24:59 68° 119° (ESE) 09:29:23 436.775 MHz
SO-67 24 Jul 09:21:28 09:24:01 19° 290° (WNW) 09:26:34 435.3500 MHz FM
HO-68 24 Jul 09:34:18 09:40:26 30° 96° (E) 09:46:30 435.675 MHz FM
PCSat 24 Jul 09:56:15 09:58:12 12° 41° (NE) 10:00:09 145.825 MHz
ISS 24 Jul 10:02:00 10:04:00 15° 231° (SW) 10:06:00 145.800 FM
PANSAT 24 Jul 10:11:04 10:13:35 17° 185° (S) 10:16:06 not established
UKube-1 24 Jul 10:16:46 10:20:56 42° 99° (E) 10:25:03 145.840 MHz, 145.915 MHz
MaSat-1 24 Jul 10:24:42 10:25:10 10° 263° (W) 10:25:38 437.345 MHz
KITSAT 1 24 Jul 10:50:05 10:54:12 14° 331° (NNW) 10:58:21 435.175 FM
Saudisat 1A 24 Jul 11:02:23 11:05:01 15° 317° (NW) 11:07:40 436.775 MHz
Sapphire 24 Jul 11:03:31 11:08:27 34° 54° (NE) 11:13:20 437.095 MHz 1200 baud AX-25 AFSK
Oscar 11 24 Jul 11:07:33 11:11:54 83° 102° (ESE) 11:16:14 145.825 FM, Beacon 2401.500 USB
FUNcube-1 24 Jul 11:14:43 11:18:29 32° 97° (E) 11:22:15 145.950 - 145.970 MHz USB
HO-68 24 Jul 11:21:30 11:28:18 49° 293° (WNW) 11:35:05 435.675 MHz FM
PCSat 24 Jul 11:37:13 11:42:39 69° 60° (ENE) 11:48:02 145.825 MHz
UKube-1 24 Jul 11:54:01 11:56:46 17° 295° (WNW) 11:59:31 145.840 MHz, 145.915 MHz
Oscar 19 24 Jul 12:32:04 12:32:12 10° 59° (ENE) 12:32:20 437.125 CW, 437.150 USB
Sapphire 24 Jul 12:47:00 12:51:47 32° 251° (WSW) 12:56:33 437.095 MHz 1200 baud AX-25 AFSK
RS-15 24 Jul 12:50:04 12:56:07 16° 99° (E) 13:02:03 29.354 - 29.394 USB, Beacon 29.352 USB
FUNcube-1 24 Jul 12:51:45 12:54:40 19° 292° (WNW) 12:57:35 145.950 - 145.970 MHz USB
Oscar 16 24 Jul 12:55:45 12:59:18 19° 64° (ENE) 13:02:52 437.025 USB, Beacon 2401.1428
SO-50 24 Jul 13:00:26 13:01:50 11° 107° (ESE) 13:03:14 436.795 FM
ITAMSAT 1 24 Jul 13:08:20 13:09:49 11° 59° (ENE) 13:11:19 435.822 SSB
PCSat 24 Jul 13:22:30 13:25:25 15° 257° (WSW) 13:28:19 145.825 MHz
AO-27 24 Jul 13:24:12 13:27:26 17° 63° (ENE) 13:30:40 436.795 MHz FM
AO-Echo 24 Jul 13:25:00 13:28:21 17° 63° (ENE) 13:31:43 ?
Uribyol 2 24 Jul 13:26:51 13:30:20 18° 64° (ENE) 13:33:48 436.500 FM
JAS-1B 24 Jul 13:27:15 13:33:28 22° 53° (NE) 13:40:05 435.800 - 435.900 CW/SSB
Oscar 19 24 Jul 14:05:36 14:10:42 85° 76° (ENE) 14:15:51 437.125 CW, 437.150 USB
Oscar 16 24 Jul 14:33:19 14:38:16 49° 260° (W) 14:43:14 437.025 USB, Beacon 2401.1428
TMSAT-1 24 Jul 14:35:38 14:39:39 23° 65° (ENE) 14:43:42 436.925 FM
SO-50 24 Jul 14:37:19 14:41:45 68° 303° (WNW) 14:46:17 436.795 FM
ITAMSAT 1 24 Jul 14:43:17 14:48:31 90° 80° (E) 14:53:46 435.822 SSB
KITSAT 1 24 Jul 14:48:53 14:54:01 18° 34° (NE) 14:59:06 435.175 FM
RS-15 24 Jul 14:55:28 15:06:38 80° 117° (ESE) 15:17:34 29.354 - 29.394 USB, Beacon 29.352 USB
Gurwin Techsat 1B 24 Jul 14:55:28 15:00:31 47° 71° (ENE) 15:05:36 435.225 FM
AO-27 24 Jul 15:01:16 15:06:25 60° 259° (WSW) 15:11:36 436.795 MHz FM
AO-Echo 24 Jul 15:01:22 15:06:34 61° 259° (W) 15:11:51 ?
Uribyol 2 24 Jul 15:04:16 15:09:21 54° 259° (W) 15:14:28 436.500 FM
JAS-1B 24 Jul 15:13:57 15:22:23 85° 74° (ENE) 15:32:08 435.800 - 435.900 CW/SSB
Uosat F 24 Jul 15:18:58 15:21:08 13° 61° (ENE) 15:23:18 435.120 FM
UOSAT-12 24 Jul 15:26:35 15:30:25 27° 112° (ESE) 15:34:19 437.025 FM, 437.400 FM
AO-7 24 Jul 15:57:54 16:05:43 46° 64° (ENE) 16:13:33 29.400 - 29.500 MHz
TMSAT-1 24 Jul 16:14:13 16:19:15 44° 261° (W) 16:24:20 436.925 FM
SO-50 24 Jul 16:22:42 16:23:12 10° 323° (NW) 16:23:42 436.795 FM
Gurwin Techsat 1B 24 Jul 16:36:50 16:40:42 20° 267° (W) 16:44:35 435.225 FM
KITSAT 1 24 Jul 16:43:05 16:51:08 65° 57° (ENE) 16:59:06 435.175 FM
Uosat F 24 Jul 16:54:12 16:59:15 76° 257° (WSW) 17:04:19 435.120 FM
UOSAT-12 24 Jul 17:06:15 17:10:26 33° 309° (NW) 17:14:41 437.025 FM, 437.400 FM
JAS-1B 24 Jul 17:08:03 17:14:04 21° 274° (W) 17:20:39 435.800 - 435.900 CW/SSB
RS-15 24 Jul 17:10:36 17:20:10 33° 322° (NW) 17:29:42 29.354 - 29.394 USB, Beacon 29.352 USB
JAS-2 24 Jul 17:18:14 17:23:48 22° 61° (ENE) 17:29:11 435.800 - 435.900 CW/SSB, 435.910 FM
OPAL 24 Jul 17:29:34 17:34:39 85° 106° (ESE) 17:39:46 ?
Hamsat 24 Jul 17:42:56 17:46:07 21° 69° (ENE) 17:49:18 145.90 MHz
Saudisat 1A 24 Jul 17:48:44 17:52:51 37° 52° (NE) 17:56:56 436.775 MHz
AO-7 24 Jul 17:50:53 17:58:31 39° 261° (W) 18:06:13 29.400 - 29.500 MHz
KITSAT 1 24 Jul 18:39:31 18:45:52 26° 255° (WSW) 18:52:13 435.175 FM
JAS-2 24 Jul 19:00:10 19:08:03 80° 257° (WSW) 19:15:39 435.800 - 435.900 CW/SSB, 435.910 FM
OPAL 24 Jul 19:11:01 19:12:49 12° 302° (WNW) 19:14:38 ?
Hamsat 24 Jul 19:18:18 19:21:55 28° 264° (W) 19:25:34 145.90 MHz
Saudisat 1A 24 Jul 19:28:51 19:32:12 21° 249° (WSW) 19:35:31 436.775 MHz
RS-15 24 Jul 19:31:11 19:37:31 16° 357° (N) 19:43:52 29.354 - 29.394 USB, Beacon 29.352 USB
STRAND 1 24 Jul 19:44:54 19:49:50 47° 100° (E) 19:54:43 ?
SO-67 24 Jul 19:52:22 19:55:49 73° 259° (W) 19:59:18 435.3500 MHz FM
HO-68 24 Jul 20:02:52 20:07:56 21° 58° (ENE) 20:12:59 435.675 MHz FM
JAS-2 24 Jul 20:50:03 20:53:52 14° 272° (W) 20:57:39 435.800 - 435.900 CW/SSB, 435.910 FM
UKube-1 24 Jul 21:11:13 21:15:06 32° 70° (ENE) 21:19:00 145.840 MHz, 145.915 MHz
STRAND 1 24 Jul 21:24:59 21:28:39 20° 296° (WNW) 21:32:19 ?
SO-50 24 Jul 21:31:39 21:33:22 12° 39° (NE) 21:35:05 436.795 FM
RS-15 24 Jul 21:46:24 21:55:23 27° 33° (NNE) 22:04:30 29.354 - 29.394 USB, Beacon 29.352 USB
HO-68 24 Jul 21:47:43 21:54:53 75° 256° (WSW) 22:02:05 435.675 MHz FM
Oscar 11 24 Jul 22:01:14 22:05:25 54° 74° (ENE) 22:09:38 145.825 FM, Beacon 2401.500 USB
FUNcube-1 24 Jul 22:10:20 22:13:52 24° 69° (ENE) 22:17:20 145.950 - 145.970 MHz USB
MaSat-1 24 Jul 22:33:51 22:37:32 50° 109° (ESE) 22:41:53 437.345 MHz
